User: anonymous   Login
Location: Unspecified
(0.0000°N, 0.0000°E)
Time: 08:38:03
(UTC+00:00)
Language:

ROBUSTA 1B - Orbit

View from above orbital plane
View from above orbital plane
View from above satellite
View from above satellite

Ground track
Ground track

The orbit data is extracted from the following two-line orbital elements,

1 42792U 17036AD  19018.44318607  .00000903  00000-0  41840-4 0  9996
2 42792  97.3741  79.6893 0012330  48.4023 311.8268 15.22577151 87278
Epoch (UTC): 18 January 2019 10:38:11
Eccentricity: 0.0012330
inclination: 97.3741°
perigee height: 489 km
apogee height: 506 km
right ascension of ascending node: 79.6893°
argument of perigee: 48.4023°
revolutions per day: 15.22577151
mean anomaly at epoch: 311.8268°
orbit number at epoch: 8727

The dashed part of the orbit path shows where the satellite is in the earth's shadow,  

DLR